| time (UTC) | temp F | wind direction | speed MPH | gust MPH | rain 1hr in | rain 24hr in | rain mn in | humidity % | barometer mb |
| 20260505223930 | 75 | 200 | 4.0 | 6.0 | 0.00 | 0.04 | 0.04 | 31 | 1013.8 |
| 20260505223427 | 75 | 216 | 6.0 | 7.0 | 0.00 | 0.04 | 0.04 | 30 | 1013.8 |
| 20260505222924 | 76 | 267 | 6.0 | 9.0 | 0.00 | 0.04 | 0.04 | 30 | 1013.8 |
| 20260505222420 | 76 | 161 | 5.0 | 7.0 | 0.00 | 0.04 | 0.04 | 31 | 1013.8 |
| 20260505221916 | 75 | 159 | 5.0 | 8.0 | 0.00 | 0.04 | 0.04 | 31 | 1013.9 |
| 20260505221413 | 75 | 239 | 6.0 | 8.0 | 0.00 | 0.04 | 0.04 | 30 | 1013.8 |
| 20260505220910 | 75 | 231 | 5.0 | 7.0 | 0.00 | 0.04 | 0.04 | 30 | 1014.1 |
| 20260505220407 | 75 | 195 | 9.0 | 14.0 | 0.00 | 0.04 | 0.04 | 29 | 1014.0 |
| 20260505215905 | 75 | 228 | 8.0 | 11.0 | 0.00 | 0.04 | 0.04 | 31 | 1014.1 |
| 20260505215403 | 75 | 168 | 3.0 | 3.0 | 0.00 | 0.04 | 0.04 | 32 | 1014.0 |
| 20260505214900 | 75 | 183 | 6.0 | 10.0 | 0.00 | 0.04 | 0.04 | 31 | 1014.1 |
| 20260505214358 | 75 | 239 | 9.0 | 14.0 | 0.00 | 0.04 | 0.04 | 33 | 1014.2 |
| 20260505213855 | 75 | 234 | 7.0 | 10.0 | 0.00 | 0.04 | 0.04 | 32 | 1014.3 |
| 20260505213353 | 76 | 179 | 6.0 | 7.0 | 0.00 | 0.04 | 0.04 | 30 | 1014.3 |
| 20260505212848 | 75 | 94 | 7.0 | 10.0 | 0.00 | 0.04 | 0.04 | 32 | 1014.3 |
| 20260505212346 | 77 | 205 | 4.0 | 6.0 | 0.00 | 0.04 | 0.04 | 31 | 1014.5 |
| 20260505211842 | 76 | 247 | 11.0 | 13.0 | 0.00 | 0.04 | 0.04 | 30 | 1014.2 |
| 20260505211339 | 76 | 260 | 11.0 | 16.0 | 0.00 | 0.04 | 0.04 | 31 | 1014.7 |
| 20260505210836 | 75 | 260 | 9.0 | 11.0 | 0.00 | 0.04 | 0.04 | 31 | 1014.6 |
| 20260505210333 | 76 | 180 | 6.0 | 7.0 | 0.00 | 0.04 | 0.04 | 30 | 1014.5 |
| 20260505205829 | 75 | 237 | 5.0 | 8.0 | 0.00 | 0.04 | 0.04 | 33 | 1014.9 |
| 20260505205328 | 76 | 84 | 4.0 | 6.0 | 0.00 | 0.04 | 0.04 | 34 | 1014.8 |
| 20260505204824 | 75 | 206 | 2.0 | 4.0 | 0.00 | 0.04 | 0.04 | 34 | 1014.8 |
| 20260505204322 | 74 | 201 | 2.0 | 3.0 | 0.00 | 0.04 | 0.04 | 35 | 1014.7 |
| 20260505203819 | 74 | 158 | 5.0 | 8.0 | 0.00 | 0.04 | 0.04 | 35 | 1015.1 |
| 20260505203316 | 75 | 194 | 5.0 | 7.0 | 0.00 | 0.04 | 0.04 | 34 | 1014.8 |
| 20260505202812 | 76 | 178 | 5.0 | 6.0 | 0.00 | 0.04 | 0.04 | 35 | 1015.0 |
| 20260505202308 | 75 | 219 | 6.0 | 10.0 | 0.00 | 0.04 | 0.04 | 34 | 1014.8 |
| 20260505201806 | 77 | 182 | 7.0 | 9.0 | 0.00 | 0.04 | 0.04 | 35 | 1014.8 |
| 20260505201303 | 75 | 200 | 5.0 | 7.0 | 0.00 | 0.04 | 0.04 | 35 | 1015.0 |
| 20260505200801 | 75 | 206 | 4.0 | 7.0 | 0.00 | 0.04 | 0.04 | 36 | 1015.0 |
| 20260505200258 | 74 | 210 | 6.0 | 7.0 | 0.00 | 0.04 | 0.04 | 35 | 1014.8 |
| 20260505195753 | 72 | 230 | 6.0 | 9.0 | 0.00 | 0.04 | 0.04 | 37 | 1015.0 |
| 20260505195251 | 72 | 209 | 2.0 | 3.0 | 0.00 | 0.04 | 0.04 | 38 | 1015.0 |
| 20260505194748 | 73 | 169 | 3.0 | 3.0 | 0.00 | 0.04 | 0.04 | 37 | 1015.5 |
| 20260505194245 | 71 | 175 | 7.0 | 10.0 | 0.00 | 0.04 | 0.04 | 38 | 1015.5 |
| 20260505193740 | 71 | 285 | 3.0 | 4.0 | 0.00 | 0.04 | 0.04 | 41 | 1015.5 |
| 20260505193238 | 74 | 234 | 4.0 | 6.0 | 0.00 | 0.04 | 0.04 | 39 | 1015.7 |
| 20260505192736 | 73 | 198 | 6.0 | 7.0 | 0.00 | 0.04 | 0.04 | 38 | 1015.7 |
| 20260505192233 | 72 | 154 | 4.0 | 4.0 | 0.00 | 0.04 | 0.04 | 40 | 1015.8 |
| 20260505191726 | 73 | 233 | 3.0 | 3.0 | 0.00 | 0.04 | 0.04 | 40 | 1015.6 |
| 20260505191224 | 71 | 178 | 3.0 | 4.0 | 0.00 | 0.04 | 0.04 | 41 | 1015.6 |
| 20260505190719 | 74 | 183 | 7.0 | 8.0 | 0.00 | 0.04 | 0.04 | 39 | 1015.8 |
| 20260505190213 | 74 | 192 | 4.0 | 6.0 | 0.00 | 0.04 | 0.04 | 39 | 1016.0 |
| 20260505185710 | 71 | 113 | 4.0 | 6.0 | 0.00 | 0.04 | 0.04 | 41 | 1016.1 |
| 20260505185207 | 72 | 171 | 5.0 | 8.0 | 0.00 | 0.04 | 0.04 | 41 | 1016.2 |
| 20260505184703 | 75 | 274 | 5.0 | 9.0 | 0.00 | 0.04 | 0.04 | 40 | 1016.1 |
| 20260505184201 | 73 | 78 | 6.0 | 8.0 | 0.00 | 0.04 | 0.04 | 42 | 1015.9 |
| 20260505183657 | 73 | 177 | 4.0 | 6.0 | 0.00 | 0.04 | 0.04 | 43 | 1016.1 |
| 20260505183155 | 70 | 165 | 4.0 | 4.0 | 0.00 | 0.04 | 0.04 | 44 | 1016.5 |
| 20260505182650 | 71 | 171 | 6.0 | 7.0 | 0.00 | 0.04 | 0.04 | 43 | 1016.1 |
| 20260505182148 | 70 | 233 | 5.0 | 6.0 | 0.00 | 0.04 | 0.04 | 46 | 1016.2 |
| 20260505181644 | 73 | 134 | 4.0 | 6.0 | 0.00 | 0.04 | 0.04 | 46 | 1016.1 |
| 20260505181142 | 71 | 224 | 3.0 | 4.0 | 0.00 | 0.04 | 0.04 | 47 | 1016.4 |
| 20260505180638 | 71 | 154 | 4.0 | 7.0 | 0.00 | 0.04 | 0.04 | 46 | 1016.4 |
| 20260505180135 | 71 | 147 | 6.0 | 9.0 | 0.00 | 0.04 | 0.04 | 45 | 1016.4 |
| 20260505175631 | 71 | 231 | 4.0 | 4.0 | 0.00 | 0.04 | 0.04 | 47 | 1016.7 |
| 20260505175128 | 71 | 177 | 5.0 | 8.0 | 0.00 | 0.04 | 0.04 | 49 | 1016.5 |
| 20260505174624 | 72 | 195 | 6.0 | 8.0 | 0.00 | 0.04 | 0.04 | 47 | 1016.2 |
| 20260505174121 | 71 | 178 | 6.0 | 7.0 | 0.00 | 0.04 | 0.04 | 48 | 1016.5 |
| 20260505173617 | 70 | 175 | 4.0 | 6.0 | 0.00 | 0.04 | 0.04 | 50 | 1016.5 |
| 20260505173114 | 69 | 190 | 4.0 | 7.0 | 0.00 | 0.04 | 0.04 | 51 | 1016.6 |
| 20260505172611 | 70 | 251 | 5.0 | 8.0 | 0.00 | 0.04 | 0.04 | 53 | 1016.7 |
| 20260505172108 | 68 | 222 | 6.0 | 9.0 | 0.00 | 0.04 | 0.04 | 53 | 1016.7 |
| 20260505171602 | 70 | 224 | 5.0 | 7.0 | 0.00 | 0.04 | 0.04 | 51 | 1016.4 |
| 20260505171100 | 68 | 176 | 3.0 | 3.0 | 0.00 | 0.04 | 0.04 | 57 | 1016.6 |
| 20260505170556 | 68 | 85 | 2.0 | 2.0 | 0.00 | 0.04 | 0.04 | 58 | 1016.7 |
| 20260505170053 | 68 | 340 | 1.0 | 1.0 | 0.00 | 0.04 | 0.04 | 62 | 1016.6 |
| 20260505165548 | 68 | 217 | 2.0 | 2.0 | 0.00 | 0.04 | 0.04 | 61 | 1016.7 |
| 20260505165044 | 66 | 295 | 4.0 | 6.0 | 0.00 | 0.04 | 0.04 | 61 | 1016.8 |
| 20260505164540 | 65 | 207 | 1.0 | 2.0 | 0.00 | 0.04 | 0.04 | 64 | 1016.7 |
| 20260505164038 | 65 | 118 | 1.0 | 2.0 | 0.00 | 0.04 | 0.04 | 65 | 1016.8 |
| 20260505163537 | 64 | 160 | 2.0 | 2.0 | 0.00 | 0.04 | 0.04 | 64 | 1016.7 |
| 20260505163033 | 63 | 125 | 1.0 | 2.0 | 0.00 | 0.04 | 0.04 | 64 | 1016.7 |
| 20260505162526 | 64 | 318 | 2.0 | 2.0 | 0.00 | 0.04 | 0.04 | 67 | 1016.9 |
| 20260505162023 | 63 | 17 | 1.0 | 2.0 | 0.00 | 0.04 | 0.04 | 67 | 1016.8 |
| 20260505161520 | 64 | 89 | 1.0 | 1.0 | 0.00 | 0.04 | 0.04 | 68 | 1016.9 |
| 20260505161017 | 65 | 319 | 2.0 | 3.0 | 0.00 | 0.04 | 0.04 | 63 | 1016.9 |
| 20260505160515 | 64 | 85 | 0.0 | 1.0 | 0.00 | 0.04 | 0.04 | 60 | 1016.7 |
| 20260505152951 | 60 | 101 | 0.0 | 0.0 | 0.00 | 0.04 | 0.04 | 81 | 1016.7 |
| 20260505152449 | 59 | 110 | 1.0 | 1.0 | 0.00 | 0.04 | 0.04 | 82 | 1016.6 |
| 20260505151943 | 58 | 113 | 0.0 | 1.0 | 0.00 | 0.04 | 0.04 | 84 | 1016.8 |
| 20260505151434 | 58 | 113 | 2.0 | 2.0 | 0.00 | 0.04 | 0.04 | 85 | 1016.7 |
| 20260505150932 | 57 | 104 | 0.0 | 0.0 | 0.00 | 0.04 | 0.04 | 86 | 1016.8 |
| 20260505150428 | 57 | 79 | 1.0 | 2.0 | 0.00 | 0.04 | 0.04 | 87 | 1016.9 |
| 20260505140357 | 56 | 106 | 0.0 | 0.0 | 0.00 | 0.04 | 0.04 | 90 | 1016.2 |
| 20260505124811 | 54 | 108 | 0.0 | 0.0 | 0.00 | 0.03 | 0.03 | 92 | 1015.9 |
| 20260505124308 | 54 | 107 | 0.0 | 0.0 | 0.00 | 0.03 | 0.03 | 91 | 1015.9 |
| 20260505123804 | 54 | 107 | 0.0 | 0.0 | 0.00 | 0.03 | 0.03 | 91 | 1015.9 |
| 20260505123300 | 54 | 109 | 0.0 | 0.0 | 0.05 | 0.03 | 0.03 | 90 | 1015.9 |
| 20260505122757 | 55 | 114 | 2.0 | 2.0 | 0.05 | 0.03 | 0.03 | 90 | 1015.8 |
| 20260505122255 | 55 | 117 | 1.0 | 2.0 | 0.05 | 0.03 | 0.03 | 89 | 1015.8 |
| 20260505121751 | 55 | 111 | 1.0 | 1.0 | 0.00 | 0.02 | 0.02 | 90 | 1016.0 |
| 20260505121247 | 55 | 127 | 2.0 | 3.0 | 0.00 | 0.02 | 0.02 | 89 | 1015.3 |
| 20260505120744 | 55 | 110 | 1.0 | 1.0 | 0.00 | 0.02 | 0.02 | 90 | 1015.5 |
| 20260505120240 | 54 | 110 | 1.0 | 1.0 | 0.00 | 0.02 | 0.02 | 91 | 1015.6 |
| 20260505115739 | 54 | 99 | 1.0 | 1.0 | 0.00 | 0.02 | 0.02 | 92 | 1015.5 |
| 20260505115237 | 54 | 109 | 0.0 | 1.0 | 0.00 | 0.02 | 0.02 | 92 | 1015.3 |
| 20260505114734 | 55 | 106 | 0.0 | 0.0 | 0.00 | 0.02 | 0.02 | 92 | 1015.6 |
| 20260505114230 | 55 | 92 | 0.0 | 1.0 | 0.00 | 0.02 | 0.02 | 92 | 1015.8 |
| 20260505113726 | 55 | 114 | 1.0 | 1.0 | 0.00 | 0.02 | 0.02 | 93 | 1015.9 |
| 20260505113224 | 55 | 106 | 1.0 | 2.0 | 0.00 | 0.02 | 0.02 | 92 | 1016.4 |
| 20260505112720 | 55 | 149 | 2.0 | 2.0 | 0.00 | 0.02 | 0.02 | 92 | 1016.4 |
| 20260505112218 | 54 | 106 | 0.0 | 0.0 | 0.00 | 0.02 | 0.02 | 92 | 1016.2 |
| 20260505111717 | 54 | 136 | 0.0 | 0.0 | 0.00 | 0.02 | 0.02 | 92 | 1016.0 |
| 20260505111213 | 54 | 110 | 1.0 | 1.0 | 0.00 | 0.02 | 0.02 | 93 | 1016.2 |
| 20260505110709 | 54 | 112 | 1.0 | 1.0 | 0.00 | 0.02 | 0.02 | 93 | 1016.2 |
| 20260505110207 | 54 | 109 | 1.0 | 2.0 | 0.00 | 0.02 | 0.02 | 93 | 1016.4 |
| 20260505102142 | 54 | 89 | 1.0 | 1.0 | 0.00 | 0.01 | 0.01 | 92 | 1017.0 |
| 20260505101641 | 55 | 96 | 0.0 | 0.0 | 0.00 | 0.01 | 0.01 | 92 | 1017.2 |
| 20260505101137 | 55 | 107 | 0.0 | 0.0 | 0.07 | 0.01 | 0.01 | 92 | 1017.5 |
| 20260505100633 | 55 | 86 | 1.0 | 1.0 | 0.07 | 0.01 | 0.01 | 91 | 1017.4 |
| 20260505100130 | 55 | 93 | 0.0 | 1.0 | 0.00 | 0.00 | 0.00 | 91 | 1017.8 |
| 20260505095626 | 55 | 90 | 1.0 | 1.0 | 0.00 | 0.00 | 0.00 | 90 | 1017.7 |
| 20260505095123 | 55 | 38 | 3.0 | 3.0 | 0.00 | 0.00 | 0.00 | 90 | 1017.7 |
| 20260505094620 | 55 | 21 | 3.0 | 3.0 | 0.00 | 0.00 | 0.00 | 90 | 1017.8 |
| 20260505094116 | 55 | 98 | 1.0 | 1.0 | 0.00 | 0.00 | 0.00 | 90 | 1017.8 |
| 20260505093612 | 55 | 50 | 3.0 | 4.0 | 0.00 | 0.00 | 0.00 | 89 | 1017.9 |
| 20260505093109 | 55 | 12 | 2.0 | 3.0 | 0.00 | 0.00 | 0.00 | 89 | 1018.0 |
| 20260505092607 | 56 | 83 | 0.0 | 1.0 | 0.00 | 0.00 | 0.00 | 88 | 1018.2 |
| 20260505092106 | 56 | 47 | 2.0 | 3.0 | 0.00 | 0.00 | 0.00 | 87 | 1018.0 |
| 20260505091602 | 56 | 314 | 2.0 | 2.0 | 0.00 | 0.00 | 0.00 | 86 | 1018.0 |
| 20260505091100 | 56 | 93 | 1.0 | 2.0 | 0.00 | 0.00 | 0.00 | 85 | 1018.1 |
| 20260505090558 | 57 | 75 | 3.0 | 4.0 | 0.00 | 0.00 | 0.00 | 84 | 1018.1 |
| 20260505090055 | 57 | 102 | 2.0 | 2.0 | 0.00 | 0.00 | 0.00 | 82 | 1018.2 |
| 20260505085553 | 57 | 90 | 1.0 | 1.0 | 0.00 | 0.00 | 0.00 | 80 | 1018.2 |
| 20260505085051 | 58 | 16 | 2.0 | 3.0 | 0.00 | 0.00 | 0.00 | 77 | 1018.4 |
| 20260505084549 | 58 | 343 | 2.0 | 2.0 | 0.00 | 0.00 | 0.00 | 74 | 1018.1 |
| 20260505084047 | 59 | 71 | 2.0 | 3.0 | 0.00 | 0.00 | 0.00 | 72 | 1018.6 |
| 20260505083543 | 59 | 287 | 3.0 | 3.0 | 0.00 | 0.00 | 0.00 | 71 | 1018.7 |
| 20260505083040 | 59 | 19 | 4.0 | 8.0 | 0.00 | 0.00 | 0.00 | 70 | 1018.7 |
| 20260505082536 | 60 | 188 | 2.0 | 3.0 | 0.00 | 0.00 | 0.00 | 69 | 1018.6 |
| 20260505082033 | 60 | 319 | 1.0 | 3.0 | 0.00 | 0.00 | 0.00 | 67 | 1018.5 |
| 20260505081529 | 60 | 59 | 1.0 | 1.0 | 0.00 | 0.00 | 0.00 | 66 | 1018.4 |
| 20260505081026 | 60 | 67 | 1.0 | 2.0 | 0.00 | 0.00 | 0.00 | 66 | 1018.4 |
| 20260505080522 | 60 | 104 | 0.0 | 0.0 | 0.00 | 0.00 | 0.00 | 65 | 1018.4 |
| 20260505080020 | 60 | 76 | 1.0 | 1.0 | 0.00 | 0.00 | 0.00 | 65 | 1018.5 |
| 20260505075515 | 60 | 256 | 0.0 | 1.0 | 0.00 | 0.00 | 0.00 | 65 | 1018.7 |
| 20260505075012 | 60 | 104 | 0.0 | 0.0 | 0.00 | 0.00 | 0.00 | 64 | 1018.5 |
| 20260505074510 | 60 | 107 | 0.0 | 0.0 | 0.00 | 0.00 | 0.00 | 64 | 1018.7 |
| 20260505074007 | 60 | 79 | 2.0 | 2.0 | 0.00 | 0.00 | 0.00 | 63 | 1018.7 |
| 20260505073504 | 60 | 73 | 1.0 | 2.0 | 0.00 | 0.00 | 0.00 | 62 | 1018.6 |
| 20260505073002 | 60 | 335 | 3.0 | 3.0 | 0.00 | 0.00 | 0.00 | 61 | 1018.7 |
| 20260505072457 | 60 | 61 | 2.0 | 2.0 | 0.00 | 0.00 | 0.00 | 60 | 1018.7 |
| 20260505071954 | 60 | 87 | 1.0 | 2.0 | 0.00 | 0.00 | 0.00 | 61 | 1018.8 |
| 20260505071449 | 61 | 95 | 2.0 | 2.0 | 0.00 | 0.00 | 0.00 | 60 | 1018.7 |
| 20260505070948 | 61 | 86 | 2.0 | 2.0 | 0.00 | 0.00 | 0.00 | 60 | 1018.8 |
| 20260505070444 | 61 | 65 | 2.0 | 2.0 | 0.00 | 0.00 | 0.00 | 59 | 1018.9 |
| 20260505065940 | 61 | 82 | 2.0 | 3.0 | 0.00 | 0.00 | 0.00 | 62 | 1018.9 |
| 20260505065437 | 61 | 106 | 1.0 | 1.0 | 0.00 | 0.00 | 0.00 | 62 | 1018.6 |
| 20260505064933 | 61 | 102 | 0.0 | 0.0 | 0.00 | 0.00 | 0.00 | 61 | 1018.5 |
| 20260505064430 | 61 | 100 | 0.0 | 1.0 | 0.00 | 0.00 | 0.00 | 60 | 1018.6 |
| 20260505063929 | 61 | 111 | 0.0 | 0.0 | 0.00 | 0.00 | 0.00 | 56 | 1018.7 |
| 20260505063425 | 61 | 107 | 0.0 | 0.0 | 0.00 | 0.00 | 0.00 | 56 | 1018.8 |
| 20260505062922 | 61 | 99 | 0.0 | 0.0 | 0.00 | 0.00 | 0.00 | 54 | 1018.8 |
| 20260505062419 | 61 | 128 | 0.0 | 0.0 | 0.00 | 0.00 | 0.00 | 54 | 1018.7 |
| 20260505061915 | 61 | 101 | 0.0 | 0.0 | 0.00 | 0.00 | 0.00 | 53 | 1018.8 |
| 20260505061414 | 61 | 106 | 0.0 | 0.0 | 0.00 | 0.00 | 0.00 | 52 | 1018.9 |
| 20260505060911 | 61 | 105 | 1.0 | 2.0 | 0.00 | 0.00 | 0.00 | 51 | 1019.0 |
| 20260505060408 | 61 | 101 | 0.0 | 0.0 | 0.00 | 0.00 | 0.00 | 50 | 1018.8 |
| 20260505055904 | 61 | 105 | 0.0 | 1.0 | 0.00 | 0.00 | 0.00 | 50 | 1018.6 |
| 20260505055400 | 62 | 106 | 2.0 | 3.0 | 0.00 | 0.00 | 0.00 | 49 | 1018.6 |
| 20260505054857 | 62 | 75 | 1.0 | 2.0 | 0.00 | 0.00 | 0.00 | 48 | 1018.6 |
| 20260505054354 | 61 | 79 | 1.0 | 1.0 | 0.00 | 0.00 | 0.00 | 49 | 1018.5 |
| 20260505053852 | 61 | 102 | 0.0 | 0.0 | 0.00 | 0.00 | 0.00 | 48 | 1018.7 |
| 20260505053349 | 61 | 102 | 1.0 | 1.0 | 0.00 | 0.00 | 0.00 | 47 | 1018.7 |
| 20260505052846 | 61 | 78 | 3.0 | 4.0 | 0.00 | 0.00 | 0.00 | 47 | 1018.7 |
| 20260505052343 | 61 | 86 | 1.0 | 1.0 | 0.00 | 0.00 | 0.00 | 47 | 1018.7 |
| 20260505051840 | 61 | 84 | 2.0 | 2.0 | 0.00 | 0.00 | 0.00 | 46 | 1018.9 |
| 20260505051337 | 61 | 84 | 0.0 | 1.0 | 0.00 | 0.00 | 0.00 | 46 | 1018.8 |
| 20260505050835 | 61 | 105 | 0.0 | 0.0 | 0.00 | 0.00 | 0.00 | 47 | 1018.8 |
| 20260505050334 | 62 | 106 | 0.0 | 0.0 | 0.00 | 0.00 | 0.00 | 46 | 1018.8 |
| 20260505041301 | 63 | 89 | 3.0 | 4.0 | 0.00 | 0.00 | 0.00 | 45 | 1018.0 |
| 20260505040758 | 62 | 212 | 3.0 | 4.0 | 0.00 | 0.00 | 0.00 | 46 | 1018.4 |
| 20260505040255 | 62 | 93 | 1.0 | 1.0 | 0.00 | 0.00 | 0.00 | 46 | 1018.8 |
| 20260505035752 | 62 | 206 | 2.0 | 2.0 | 0.00 | 0.00 | 0.00 | 46 | 1018.8 |
| 20260505035248 | 62 | 65 | 2.0 | 2.0 | 0.00 | 0.00 | 0.00 | 45 | 1018.8 |
| 20260505034745 | 62 | 62 | 1.0 | 1.0 | 0.00 | 0.00 | 0.00 | 45 | 1018.8 |
| 20260505034242 | 62 | 63 | 2.0 | 3.0 | 0.00 | 0.00 | 0.00 | 45 | 1018.8 |
| 20260505033738 | 62 | 91 | 2.0 | 2.0 | 0.00 | 0.00 | 0.00 | 45 | 1018.9 |
| 20260505033236 | 62 | 355 | 5.0 | 7.0 | 0.00 | 0.00 | 0.00 | 45 | 1018.6 |
| 20260505032734 | 62 | 105 | 1.0 | 2.0 | 0.00 | 0.00 | 0.00 | 45 | 1018.4 |
| 20260505032229 | 62 | 344 | 4.0 | 7.0 | 0.00 | 0.00 | 0.00 | 45 | 1018.6 |
| 20260505031727 | 62 | 43 | 3.0 | 4.0 | 0.00 | 0.00 | 0.00 | 45 | 1018.1 |
| 20260505031223 | 62 | 289 | 2.0 | 8.0 | 0.00 | 0.00 | 0.00 | 45 | 1018.1 |
| 20260505030721 | 63 | 355 | 2.0 | 3.0 | 0.00 | 0.00 | 0.00 | 44 | 1018.1 |
| 20260505030216 | 63 | 32 | 3.0 | 3.0 | 0.00 | 0.00 | 0.00 | 44 | 1017.7 |
| 20260505025712 | 63 | 67 | 6.0 | 8.0 | 0.00 | 0.00 | 0.00 | 44 | 1017.9 |
| 20260505025211 | 64 | 274 | 5.0 | 8.0 | 0.00 | 0.00 | 0.00 | 43 | 1017.6 |
| 20260505024709 | 64 | 245 | 3.0 | 3.0 | 0.00 | 0.00 | 0.00 | 43 | 1017.7 |
| 20260505024205 | 64 | 36 | 6.0 | 7.0 | 0.00 | 0.00 | 0.00 | 43 | 1017.6 |
| 20260505023703 | 65 | 249 | 4.0 | 6.0 | 0.00 | 0.00 | 0.00 | 43 | 1017.6 |
| 20260505023200 | 65 | 349 | 5.0 | 7.0 | 0.00 | 0.00 | 0.00 | 43 | 1017.6 |
| 20260505022658 | 65 | 257 | 2.0 | 3.0 | 0.00 | 0.00 | 0.00 | 43 | 1017.5 |
| 20260505022154 | 65 | 108 | 3.0 | 6.0 | 0.00 | 0.00 | 0.00 | 42 | 1017.2 |
| 20260505021651 | 65 | 20 | 3.0 | 3.0 | 0.00 | 0.00 | 0.00 | 42 | 1017.2 |
| 20260505021148 | 66 | 290 | 4.0 | 6.0 | 0.00 | 0.00 | 0.00 | 41 | 1017.2 |
| 20260505020643 | 66 | 133 | 2.0 | 2.0 | 0.00 | 0.00 | 0.00 | 41 | 1017.0 |
| 20260505020139 | 67 | 139 | 3.0 | 3.0 | 0.00 | 0.00 | 0.00 | 40 | 1017.4 |
| 20260505015637 | 67 | 312 | 4.0 | 4.0 | 0.00 | 0.00 | 0.00 | 39 | 1017.4 |
| 20260505015133 | 68 | 275 | 4.0 | 4.0 | 0.00 | 0.00 | 0.00 | 38 | 1017.4 |
| 20260505014630 | 68 | 269 | 2.0 | 2.0 | 0.00 | 0.00 | 0.00 | 38 | 1017.2 |
| 20260505014127 | 68 | 138 | 2.0 | 2.0 | 0.00 | 0.00 | 0.00 | 36 | 1017.1 |
| 20260505013625 | 68 | 90 | 2.0 | 2.0 | 0.00 | 0.00 | 0.00 | 35 | 1016.9 |
| 20260505013122 | 69 | 33 | 2.0 | 3.0 | 0.00 | 0.00 | 0.00 | 35 | 1016.8 |
| 20260505012620 | 69 | 346 | 4.0 | 6.0 | 0.00 | 0.00 | 0.00 | 34 | 1017.1 |
| 20260505012117 | 70 | 327 | 3.0 | 4.0 | 0.00 | 0.00 | 0.00 | 33 | 1016.9 |
| 20260505011612 | 70 | 312 | 2.0 | 3.0 | 0.00 | 0.00 | 0.00 | 33 | 1016.8 |
| 20260505011110 | 71 | 286 | 6.0 | 7.0 | 0.00 | 0.00 | 0.00 | 32 | 1016.8 |
| 20260505010605 | 72 | 232 | 4.0 | 4.0 | 0.00 | 0.00 | 0.00 | 32 | 1017.0 |
| 20260505005558 | 73 | 287 | 7.0 | 9.0 | 0.00 | 0.00 | 0.00 | 29 | 1016.9 |
| 20260505005056 | 73 | 107 | 2.0 | 2.0 | 0.00 | 0.00 | 0.00 | 29 | 1016.8 |
| 20260505004553 | 73 | 322 | 5.0 | 8.0 | 0.00 | 0.00 | 0.00 | 29 | 1016.9 |
| 20260505004049 | 73 | 294 | 5.0 | 7.0 | 0.00 | 0.00 | 0.00 | 29 | 1017.0 |
| 20260505003547 | 73 | 311 | 6.0 | 8.0 | 0.00 | 0.00 | 0.00 | 29 | 1017.2 |
| 20260505003044 | 74 | 235 | 4.0 | 4.0 | 0.00 | 0.00 | 0.00 | 28 | 1016.9 |
| 20260505002543 | 74 | 229 | 4.0 | 6.0 | 0.00 | 0.00 | 0.00 | 27 | 1016.9 |
| 20260505002044 | 74 | 304 | 3.0 | 3.0 | 0.00 | 0.00 | 0.00 | 28 | 1016.7 |
| 20260505001540 | 75 | 278 | 8.0 | 10.0 | 0.00 | 0.00 | 0.00 | 28 | 1016.6 |
| 20260505001037 | 75 | 190 | 4.0 | 4.0 | 0.00 | 0.00 | 0.00 | 28 | 1016.9 |
| 20260505000535 | 76 | 219 | 5.0 | 7.0 | 0.00 | 0.00 | 0.00 | 27 | 1016.6 |
| 20260505000032 | 78 | 283 | 9.0 | 10.0 | 0.00 | 0.00 | 0.00 | 26 | 1016.6 |
| 20260504235529 | 77 | 261 | 4.0 | 7.0 | 0.00 | 0.00 | 0.00 | 29 | 1016.4 |
| 20260504235026 | 76 | 248 | 4.0 | 8.0 | 0.00 | 0.00 | 0.00 | 29 | 1016.4 |
| 20260504234523 | 76 | 215 | 2.0 | 2.0 | 0.00 | 0.00 | 0.00 | 30 | 1016.5 |
| 20260504234020 | 76 | 289 | 5.0 | 7.0 | 0.00 | 0.00 | 0.00 | 29 | 1016.6 |
| 20260504233515 | 76 | 336 | 5.0 | 8.0 | 0.00 | 0.00 | 0.00 | 29 | 1016.7 |
| 20260504233012 | 77 | 203 | 3.0 | 4.0 | 0.00 | 0.00 | 0.00 | 29 | 1016.7 |
| 20260504232509 | 76 | 199 | 4.0 | 4.0 | 0.00 | 0.00 | 0.00 | 29 | 1016.6 |
| 20260504232007 | 76 | 3 | 4.0 | 6.0 | 0.00 | 0.00 | 0.00 | 29 | 1016.6 |
| 20260504231503 | 76 | 171 | 3.0 | 3.0 | 0.00 | 0.00 | 0.00 | 29 | 1016.7 |
| 20260504230959 | 76 | 287 | 5.0 | 8.0 | 0.00 | 0.00 | 0.00 | 29 | 1016.8 |
| 20260504230456 | 76 | 230 | 7.0 | 11.0 | 0.00 | 0.00 | 0.00 | 29 | 1016.7 |
| 20260504225955 | 76 | 333 | 4.0 | 7.0 | 0.00 | 0.00 | 0.00 | 30 | 1016.5 |
| 20260504225451 | 76 | 248 | 5.0 | 8.0 | 0.00 | 0.00 | 0.00 | 28 | 1016.7 |
| 20260504224948 | 77 | 250 | 6.0 | 8.0 | 0.00 | 0.00 | 0.00 | 26 | 1016.6 |
| 20260504224445 | 77 | 6 | 4.0 | 7.0 | 0.00 | 0.00 | 0.00 | 24 | 1016.5 |